Home > Weather > Georgetown > Past weeks

Flag for Guyana Past Weather in Georgetown, Guyana — Yesterday and Last 2 Weeks

Now
73 °F

Thunderstorms. Passing clouds.


Feels Like: 68 °F
Forecast: 79 / 86 °F
Wind: 14 mph from Southeast

Location: Georgetown/Cheddi Jagan International Airport

Current Time: Jul 24, 2016 at 4:49:11 AM

Latest Report: Jul 24, 2016 at 3:00 AM


Visibility: 5 mi

Pressure: 29.89 "Hg

Humidity: 100%

Dew Point: 73 °F

Location of GeorgetownLocation

Past Weather in Georgetown — Graph

°F

Georgetown Temperature Yesterday

Maximum temperature yesterday: 79 °F (at 11:00 AM)
Minimum temperature yesterday: 73 °F (at 4:00 AM)
Average temperature yesterday: 77 °F

High & Low Weather Summary for the Past Weeks

 TemperatureHumidityPressure
High91 °F (Jul 10, 1:00 PM)100% (Jul 9, 4:00 AM)30.04 "Hg (Jul 9, 4:00 AM)
Low73 °F (Jul 9, 4:00 AM)56% (Jul 22, 12:00 PM)29.77 "Hg (Jul 15, 3:00 PM)
Average79 °F88%29.92 "Hg
* Reported Jul 9 4:00 AM — Jul 24 3:00 AM, Georgetown, Weather by CustomWeather, © 2016

Note: Actual official high and low records may vary slightly from our data, if they occured in-between our weather recording intervals... More about our weather records

Advertising

Georgetown Weather History for the Previous 24 Hours

Scroll right to see more
 ConditionsComfort  
Time TempWeatherWind HumidityBarometerVisibility
3:00 AM
Sun, Jul 24
73 °FThunderstorms. Passing clouds.14 mph100%29.89 "Hg5 mi
2:00 AM75 °FThunderstorms. Passing clouds.5 mph94%29.89 "Hg6 mi
1:00 AM75 °FPassing clouds.5 mph94%29.89 "HgN/A
12:00 AM75 °FPassing clouds.No wind100%29.92 "HgN/A
11:00 PM
Sat, Jul 23
75 °FPartly cloudy.5 mph100%29.92 "HgN/A
10:00 PM75 °FPassing clouds.5 mph94%29.95 "HgN/A
9:00 PM75 °FPassing clouds.No wind94%29.92 "HgN/A
8:00 PM75 °FPassing clouds.No wind100%29.89 "HgN/A
7:00 PM77 °FPassing clouds.5 mph94%29.89 "HgN/A
6:00 PM79 °FPartly sunny.7 mph89%29.89 "HgN/A
5:00 PM79 °FBroken clouds.7 mph89%29.89 "HgN/A
4:00 PM79 °FSprinkles. Broken clouds.7 mph89%29.89 "HgN/A
3:00 PM79 °FBroken clouds.12 mph89%29.89 "HgN/A
2:00 PM79 °FBroken clouds.5 mph89%29.86 "HgN/A
1:00 PM79 °FBroken clouds.7 mph89%29.92 "HgN/A
12:00 PM79 °FBroken clouds.12 mph89%29.95 "Hg5 mi
11:00 AM79 °FScattered showers. Broken clouds.5 mph84%29.95 "Hg5 mi
10:00 AM75 °FBroken clouds.5 mph94%29.95 "Hg6 mi
9:00 AM77 °FSprinkles. Partly sunny.7 mph94%29.98 "Hg4 mi
8:00 AM75 °FMild.2 mph94%29.95 "HgN/A
7:00 AM75 °FScattered showers. Partly sunny.No wind94%29.92 "Hg4 mi
6:00 AM75 °FSprinkles. Partly sunny.No wind94%29.92 "HgN/A
5:00 AM73 °FPassing clouds.No wind100%29.89 "HgN/A
4:00 AM73 °FPassing clouds.2 mph100%29.89 "HgN/A
Weather by CustomWeather, © 2016

See weather overviewHow to use our weather pages